GFSSE_con_mlcape_276.txt.gz
CAPE
215 177 117 415 534 514 495 446 393 376 371 434 443 339 214 173 185 228 290 337 326 317 291 267 243 213 175 147 94 24 0 0 0 0 0 105 228 0 0 0 34 415 569
344 89 191 532 719 605 482 530 429 320 315 298 323 310 313 270 153 99 87 104 147 215 239 281 345 413 436 426 414 337 219 94 0 0 0 0 35 18 0 0 90 221 4
303 8 237 541 576 590 608 377 291 287 293 347 323 126 0 0 12 81 219 423 519 547 588 670 729 687 562 475 389 354 361 288 176 60 0 0 0 425 88 11 0 210 0
457 445 556 761 690 599 271 187 416 431 299 127 65 83 142 250 369 468 516 597 661 548 479 335 323 308 295 312 368 468 529 556 448 360 102 0 0 603 319 273 108 118 176
827 859 702 802 492 199 495 339 229 164 227 397 531 617 717 643 620 782 765 568 508 416 472 662 485 350 410 552 458 419 377 319 372 428 442 284 435 570 443 233 227 331 502
373 811 761 350 436 506 191 239 344 692 541 496 383 295 320 281 216 206 167 129 115 110 118 120 111 1 0 148 521 512 449 530 613 501 210 392 430 345 118 6 0 71 858
363 343 200 614 388 351 533 451 359 231 165 143 96 103 97 40 21 9 0 0 0 0 0 0 0 0 0 0 0 0 0 22 25 121 438 529 403 413 262 298 253 33 287
11 96 443 351 319 434 288 145 61 1 0 0 0 0 0 0 0 0 0 0 0 0 0 0 0 0 0 0 0 0 0 0 0 34 63 659 618 626 707 660 608 499 536
150 223 169 389 463 275 128 7 0 0 0 0 0 0 0 0 0 0 0 0 0 0 0 0 0 0 0 0 0 0 0 0 0 5 108 881 748 580 760 648 579 629 650
52 37 181 271 278 163 0 0 0 0 0 0 0 0 0 0 0 0 0 0 0 0 0 0 0 0 0 0 0 0 0 0 0 0 133 972 763 731 823 660 645 756 871
40 126 236 206 407 222 0 0 0 0 0 0 0 0 0 0 0 0 0 0 0 0 0 0 0 0 0 0 0 0 0 0 0 0 434 1165 1208 1185 1139 713 594 705 1171
113 413 491 866 608 358 142 23 46 0 0 0 0 0 0 0 0 0 0 0 0 0 0 0 0 0 0 0 0 0 0 0 0 0 5 473 456 760 1080 1222 1007 692 1002
766 1240 1273 1216 762 613 375 372 187 1 0 0 0 0 0 0 0 0 0 0 0 0 0 0 0 0 0 0 0 0 0 0 0 0 9 10 5 3 1 128 766 1146 900
827 1475 1418 1325 1351 949 577 429 139 0 0 0 0 0 0 0 0 0 0 0 0 0 0 0 0 0 0 0 0 0 3 0 0 0 0 0 2 1 0 0 149 629 875
836 1516 1498 1674 1320 1158 646 252 79 0 0 0 0 0 0 0 0 0 0 0 0 0 0 0 0 0 0 4 5 0 1 5 12 16 17 41 123 123 142 76 46 631 480
735 1468 1526 1588 1465 1017 512 204 21 0 0 0 0 0 0 0 0 0 0 0 0 0 0 0 0 0 0 4 0 6 13 32 39 35 48 76 99 75 248 247 311 560 641
1108 1387 1491 1270 818 495 252 75 3 0 0 0 0 0 0 0 0 0 0 0 0 0 0 0 0 0 2 0 0 18 18 42 39 25 24 27 24 83 185 296 444 338 392
1588 1339 1085 733 524 375 84 22 0 0 0 0 0 0 0 0 0 0 0 0 0 0 0 0 0 0 0 1 0 0 23 9 30 25 17 19 0 0 0 0 9 48 19
1182 939 624 469 372 41 3 3 0 0 0 0 0 0 0 0 0 0 0 0 0 0 0 0 0 0 0 1 10 0 7 20 24 29 2 4 11 2 0 2 1 0 0
946 592 291 121 80 32 0 0 0 0 0 0 0 0 0 0 0 0 0 0 0 0 0 0 0 0 1 0 0 14 5 6 12 3 24 46 5 18 0 0 0 2 3
752 416 118 136 76 1 0 0 0 0 0 0 0 0 0 0 0 0 0 0 0 0 0 0 0 0 0 0 0 0 13 31 53 20 17 16 5 1 4 29 4 0 1
482 175 143 57 36 13 0 0 0 0 0 0 0 0 0 0 0 0 0 0 0 0 0 0 0 0 0 0 0 0 6 9 28 20 24 12 1 4 0 0 1 3 28
376 255 94 105 14 0 0 0 0 0 0 0 0 0 0 0 0 0 0 0 0 0 0 0 0 0 0 0 0 0 0 0 0 22 36 17 2 6 14 21 21 8 8
497 121 82 43 0 0 0 0 0 0 0 0 0 0 0 0 0 0 0 0 0 0 0 0 0 0 0 0 0 0 0 0 0 0 8 11 36 29 8 0 0 2 6
320 118 91 24 0 0 0 0 0 0 0 0 0 0 0 0 0 0 0 1 0 0 0 0 0 0 0 0 0 0 0 0 0 0 0 0 0 0 0 0 0 0 0
287 133 34 0 0 0 0 0 0 0 0 0 0 0 0 0 0 0 0 1 0 2 0 0 0 0 0 0 0 0 0 0 0 0 0 0 0 0 0 0 0 0 0

GFSSE_con_mlcape_279.txt.gz
CAPE
84 486 401 409 404 294 223 181 192 223 196 161 166 163 163 171 170 156 159 154 211 246 262 299 318 334 264 215 159 79 20 0 0 0 0 0 122 0 0 0 569 421 598
127 537 319 294 274 346 446 353 243 180 163 208 227 130 22 0 0 22 137 273 373 472 497 520 480 419 331 252 195 149 127 75 0 0 0 0 0 106 0 88 341 6 161
29 416 355 468 620 569 329 166 129 149 165 95 0 0 36 149 251 301 366 449 511 424 387 323 340 318 322 331 361 357 357 374 339 283 134 19 0 0 130 244 329 7 0
17 304 691 721 560 320 85 205 189 78 0 5 72 267 533 628 696 749 714 580 417 307 395 609 346 225 256 464 424 320 281 203 139 153 180 124 204 119 208 289 208 238 45
330 550 738 485 251 270 240 57 0 61 277 457 578 405 390 296 241 220 174 134 134 140 131 147 119 35 0 35 290 354 299 324 472 450 262 166 150 825 435 449 297 97 351
513 605 457 376 415 153 1 76 574 289 224 201 155 183 114 112 16 1 0 0 0 0 0 0 0 0 0 0 0 0 0 0 41 0 0 0 45 799 308 269 725 566 500
392 370 454 363 285 463 575 404 137 95 59 35 19 0 0 0 0 0 0 0 0 0 0 0 0 0 0 0 0 0 0 0 0 0 0 17 397 804 647 494 254 254 351
56 253 426 250 408 245 148 94 8 0 0 0 0 0 0 0 0 0 0 0 0 0 0 0 0 0 0 0 0 0 0 0 0 0 0 11 678 704 277 0 116 315 438
120 242 262 271 253 94 51 0 0 0 0 0 0 0 0 0 0 0 0 0 0 0 0 0 0 0 0 0 0 0 0 0 0 0 0 14 803 683 0 14 716 895 830
175 95 144 144 68 27 0 0 0 0 0 0 0 0 0 0 0 0 0 0 0 0 0 0 0 0 0 0 0 0 0 0 0 0 0 47 661 439 902 756 767 882 688
69 142 82 33 10 0 0 0 0 0 0 0 0 0 0 0 0 0 0 0 0 0 0 0 0 0 0 0 0 0 0 0 0 0 7 326 292 434 548 578 636 763 771
127 127 208 227 51 0 0 0 0 0 0 0 0 0 0 0 0 0 0 0 0 0 0 0 0 0 0 0 0 0 0 0 0 0 0 4 8 18 62 90 642 705 776
246 120 297 354 133 20 0 0 0 0 0 0 0 0 0 0 0 0 0 0 0 0 0 0 0 0 0 0 0 0 0 0 0 0 28 55 70 162 97 6 63 577 685
317 411 675 496 368 183 213 136 0 0 0 0 0 0 0 0 0 0 0 0 0 0 0 0 0 0 0 0 0 0 0 0 5 0 0 90 48 135 154 147 36 216 692
923 964 711 964 580 369 68 0 0 0 0 0 0 0 0 0 0 0 0 0 0 0 0 0 0 0 0 0 0 0 2 8 7 11 23 83 122 175 364 517 595 550 667
1132 1085 1088 930 622 364 150 0 0 0 0 0 0 0 0 0 0 0 0 0 0 0 0 0 0 0 0 0 0 1 15 17 5 0 0 2 5 101 264 228 437 726 326
1235 1383 1030 769 611 344 77 1 0 0 0 0 0 0 0 0 0 0 0 0 0 0 0 0 0 0 0 0 0 0 13 14 4 0 0 0 0 8 25 77 38 32 5
1252 1110 952 744 487 249 27 0 0 0 0 0 0 0 0 0 0 0 0 0 0 0 0 0 0 0 0 0 0 1 12 11 0 0 0 0 0 1 19 25 20 31 18
1049 1007 860 603 388 91 0 0 0 0 0 0 0 0 0 0 0 0 0 0 0 0 0 0 0 0 0 0 2 0 0 23 17 29 0 12 1 0 0 16 15 10 19
925 796 593 375 126 3 0 0 0 0 0 0 0 0 0 0 0 0 0 0 0 0 0 0 0 0 0 0 0 0 2 13 26 24 19 29 27 5 0 0 0 3 5
648 508 386 172 38 0 0 0 0 0 0 0 0 0 0 0 0 0 0 0 0 0 0 0 0 0 0 0 0 0 15 37 29 13 9 4 0 23 16 15 10 19 17
627 317 148 60 5 0 0 0 0 0 0 0 0 0 0 0 0 0 0 0 0 0 0 0 0 0 0 0 0 0 0 1 0 34 33 13 0 0 4 16 20 38 12
526 321 178 59 9 0 0 0 0 0 0 0 0 0 0 0 0 0 0 0 0 0 0 0 0 0 0 0 0 0 0 0 0 19 42 30 18 7 0 0 2 12 27
475 251 107 60 16 0 0 0 0 0 0 0 0 0 0 0 0 0 0 0 0 0 0 0 0 0 0 0 0 0 0 0 0 0 0 4 21 6 0 0 0 0 0
431 223 139 81 22 0 0 0 0 0 0 0 0 0 0 0 0 0 0 0 0 0 0 0 0 0 0 0 0 0 0 0 0 0 0 0 0 0 0 0 0 0 0
241 214 146 110 1 0 0 0 0 0 0 0 0 0 0 0 0 0 0 0 0 0 0 0 0 0 0 0 0 0 0 0 0 0 0 0 0 0 0 0 1 0 1

GFSSE_con_mlcape_285.txt.gz
CAPE
132 377 783 756 610 381 313 288 194 138 141 122 44 0 0 8 121 221 265 347 399 454 588 662 522 408 337 355 355 285 259 222 200 187 117 53 78 10 0 102 869 449 682
228 450 629 632 540 405 299 195 140 133 93 12 0 72 203 253 271 388 458 287 201 270 259 182 223 271 294 274 202 146 140 150 167 265 478 544 76 28 32 295 889 585 712
219 372 492 574 568 412 261 174 136 58 0 25 201 311 405 565 787 573 416 314 216 182 153 143 121 104 55 98 192 273 180 144 178 445 247 0 6 130 5 96 781 317 489
250 330 416 656 590 262 146 104 26 0 81 383 747 883 785 558 382 238 183 164 168 149 109 83 26 0 0 0 0 0 0 0 25 48 0 0 0 0 318 465 503 215 309
260 346 676 700 313 262 172 7 36 253 685 739 593 477 358 197 92 24 7 0 0 0 0 0 0 0 0 0 0 0 0 0 0 0 0 0 0 0 133 1220 384 426 246
316 465 779 567 517 225 39 210 557 847 687 538 323 225 79 0 0 0 0 0 0 0 0 0 0 0 0 0 0 0 0 0 0 0 0 0 0 26 618 815 301 281 322
353 614 692 540 277 90 704 887 815 605 404 168 60 2 0 0 0 0 0 0 0 0 0 0 0 0 0 0 0 0 0 0 0 0 0 0 0 483 816 519 293 159 181
407 561 543 352 154 719 742 583 416 176 108 11 0 0 0 0 0 0 0 0 0 0 0 0 0 0 0 0 0 0 0 0 0 0 0 0 1 1028 863 537 188 208 173
504 406 448 637 818 722 533 255 80 7 0 0 0 0 0 0 0 0 0 0 0 0 0 0 0 0 0 0 0 0 0 0 0 0 0 0 671 898 343 12 4 294 319
378 243 300 414 536 405 189 13 0 0 0 0 0 0 0 0 0 0 0 0 0 0 0 0 0 0 0 0 0 0 0 0 0 0 0 81 166 215 201 199 228 249 208
217 234 171 108 129 81 0 0 0 0 0 0 0 0 0 0 0 0 0 0 0 0 0 0 0 0 0 0 0 0 0 0 0 0 0 0 16 13 12 88 115 68 119
37 107 99 0 42 0 0 0 0 0 0 0 0 0 0 0 0 0 0 0 0 0 0 0 0 0 0 0 0 0 0 0 0 0 21 37 57 48 25 10 0 124 179
0 60 72 0 29 0 0 0 0 0 0 0 0 0 0 0 0 0 0 0 0 0 0 0 0 0 0 0 0 0 0 0 3 13 34 56 70 93 207 268 209 184 376
0 0 0 10 27 0 0 0 0 0 0 0 0 0 0 0 0 0 0 0 0 0 0 0 0 0 0 0 0 0 0 0 0 7 31 48 39 41 82 198 257 301 293
0 7 0 12 40 0 0 0 0 0 0 0 0 0 0 0 0 0 0 0 0 0 0 0 0 0 0 0 0 0 0 0 0 0 0 51 53 45 59 75 101 146 170
20 52 64 39 44 5 5 0 0 0 0 0 0 0 0 0 0 0 0 0 0 0 0 0 0 0 0 0 0 0 0 0 0 0 0 15 52 57 52 45 57 68 46
106 106 258 224 126 54 29 0 0 0 0 0 0 0 0 0 0 0 0 0 0 0 0 0 0 0 0 0 0 0 0 0 0 0 0 0 0 7 42 50 74 39 63
198 227 377 338 176 24 0 0 0 0 0 0 0 0 0 0 0 0 0 0 0 0 0 0 0 0 0 0 0 0 0 0 0 0 0 0 0 0 13 21 11 21 56
278 418 495 344 70 0 0 0 0 0 0 0 0 0 0 0 0 0 0 0 0 0 0 0 0 0 0 0 0 0 0 5 1 0 0 0 0 0 12 45 25 32 47
460 575 497 286 38 0 0 0 0 0 0 0 0 0 0 0 0 0 0 0 0 0 0 0 0 0 0 0 0 1 6 9 5 0 0 0 0 0 7 7 0 12 5
726 656 477 312 168 3 0 0 0 0 0 0 0 0 0 0 0 0 0 0 0 0 0 0 0 0 0 0 0 0 3 0 0 1 0 0 0 0 8 4 6 6 0
860 690 522 318 79 0 0 0 0 0 0 0 0 0 0 0 0 0 0 0 0 0 0 0 0 0 0 0 0 0 0 0 0 0 0 0 0 0 11 21 13 5 0
832 534 297 99 32 0 0 0 0 0 0 0 0 0 0 0 0 0 0 0 0 0 0 0 0 0 0 0 0 0 0 0 0 0 0 0 0 0 2 13 36 25 0
401 201 223 0 0 0 0 0 0 0 0 0 0 0 0 0 0 0 0 0 0 0 0 0 0 0 0 0 0 0 0 0 0 0 0 0 0 0 0 0 14 28 5
109 301 0 0 0 0 0 0 0 0 0 0 0 0 0 0 0 0 0 0 0 0 0 0 0 0 0 0 0 0 0 0 0 0 0 0 0 0 0 0 1 21 5
276 168 30 0 0 0 0 0 0 0 0 0 0 0 0 0 0 0 0 0 0 0 0 0 0 0 0 0 0 0 0 0 0 0 0 0 0 0 0 0 0 0 0

GFSSE_con_mlcape_291.txt.gz
CAPE
130 362 271 220 265 378 290 248 205 142 46 23 33 115 322 393 459 381 236 284 272 213 203 206 153 154 210 189 203 223 336 354 286 261 298 385 268 38 24 91 307 514 514
219 306 197 217 289 381 289 268 155 9 0 93 323 379 568 827 605 404 271 183 184 185 193 168 154 109 8 2 3 3 108 134 188 294 56 4 0 6 57 46 293 848 601
317 401 227 231 385 382 274 126 0 6 199 389 504 854 600 360 294 270 225 153 130 129 90 1 1 2 0 0 0 0 0 0 24 44 0 0 0 0 180 122 244 1007 797
453 450 265 411 433 275 115 0 0 169 513 791 725 457 282 188 133 105 97 54 4 0 0 0 0 0 0 0 0 0 0 0 0 0 0 0 0 0 0 250 735 740 762
318 395 450 528 430 212 61 0 110 605 670 377 264 205 36 0 0 0 0 0 0 0 0 0 0 0 0 0 0 0 0 0 0 0 0 0 0 0 0 0 578 767 560
197 227 609 517 428 193 30 111 604 572 473 399 189 4 0 0 0 0 0 0 0 0 0 0 0 0 0 0 0 0 0 0 0 0 0 0 0 0 281 789 729 988 465
79 275 456 550 405 67 281 677 649 456 208 112 0 0 0 0 0 0 0 0 0 0 0 0 0 0 0 0 0 0 0 0 0 0 0 0 433 836 727 710 913 754 537
101 314 387 546 110 298 780 789 506 190 27 4 0 0 0 0 0 0 0 0 0 0 0 0 0 0 0 0 0 0 0 0 0 0 0 154 299 286 172 116 198 215 251
162 276 413 255 229 769 770 478 221 44 0 0 0 0 0 0 0 0 0 0 0 0 0 0 0 0 0 0 0 0 0 0 0 0 7 31 125 272 229 179 138 118 119
234 298 408 126 220 400 570 257 27 0 0 0 0 0 0 0 0 0 0 0 0 0 0 0 0 0 0 0 0 0 0 0 0 8 16 10 1 0 0 0 67 85 58
416 487 336 137 420 390 326 60 0 0 0 0 0 0 0 0 0 0 0 0 0 0 0 0 0 0 0 0 0 0 0 1 3 11 35 41 35 36 45 32 51 49 85
238 463 378 395 379 352 36 0 0 0 0 0 0 0 0 0 0 0 0 0 0 0 0 0 0 0 0 0 0 0 3 7 13 17 44 47 43 37 56 106 122 166 160
315 330 292 472 481 222 0 0 0 0 0 0 0 0 0 0 0 0 0 0 0 0 0 0 0 0 0 0 1 8 11 12 17 30 46 52 44 49 39 28 31 36 37
282 373 302 250 290 165 11 0 0 0 0 0 0 0 0 0 0 0 0 0 0 0 0 0 0 0 0 0 0 2 6 11 24 39 37 38 40 49 35 12 31 40 46
393 339 240 267 267 142 35 0 0 0 0 0 0 0 0 0 0 0 0 0 0 0 0 0 0 0 0 0 0 0 0 0 0 3 32 34 26 32 38 34 37 46 16
533 298 253 261 278 179 69 0 0 0 0 0 0 0 0 0 0 0 0 0 0 0 0 0 0 0 0 0 0 0 0 0 0 0 2 19 13 17 23 22 25 22 22
554 363 311 327 303 194 75 9 0 0 0 0 0 0 0 0 0 0 0 0 0 0 0 0 0 0 0 0 0 0 0 0 0 0 0 2 9 6 12 29 41 28 23
543 308 253 284 272 217 70 16 0 0 0 0 0 0 0 0 0 0 0 0 0 0 0 0 0 0 0 1 1 1 0 0 0 0 0 0 0 0 15 12 0 0 0
592 382 178 277 227 197 64 15 0 0 0 0 0 0 0 0 0 0 0 0 0 0 0 0 0 0 0 9 23 17 5 0 0 0 0 0 0 0 0 0 0 0 0
619 472 312 321 252 100 7 0 0 0 0 0 0 0 0 0 0 0 0 0 0 0 0 0 0 0 0 0 21 29 30 5 7 0 0 0 0 0 0 0 0 0 0
602 584 492 161 35 5 1 0 0 0 0 0 0 0 0 0 0 0 0 0 0 0 0 0 0 0 0 0 20 14 8 11 9 3 5 0 0 0 0 0 0 0 0
622 713 291 57 5 5 1 1 0 0 0 0 0 0 0 0 0 0 0 0 0 0 0 0 0 0 0 0 5 21 9 7 1 0 0 4 7 12 1 0 0 0 0
678 465 39 2 0 0 0 0 0 0 0 0 0 0 0 0 0 0 0 0 0 0 0 0 0 0 0 0 0 4 9 0 0 0 0 0 0 12 25 14 24 23 23
460 246 153 158 78 0 0 0 0 0 0 0 0 0 0 0 0 0 0 0 0 0 0 0 0 0 0 0 0 0 0 0 0 0 0 0 0 0 1 0 0 16 49
518 440 303 295 103 1 0 0 2 0 2 0 0 0 0 0 0 0 0 0 0 0 0 0 0 0 0 0 0 0 0 0 0 0 0 0 0 0 0 0 0 0 15
821 741 604 359 165 2 0 1 2 0 0 0 0 0 0 0 0 0 0 0 0 0 0 0 0 0 0 0 0 0 0 0 0 0 0 0 0 0 0 0 0 0 0